TimePDT,TemperatureF,Dew PointF,Humidity,Sea Level PressureIn,VisibilityMPH,Wind Direction,Wind SpeedMPH,Gust SpeedMPH,PrecipitationIn,Events,Conditions,WindDirDegrees,DateUTC
12:52 AM,63.0,26.1,25,29.87,10.0,Calm,Calm,-,N/A,,Clear,0,2012-10-06 07:52:00
1:52 AM,62.1,27.0,26,29.86,10.0,ENE,4.6,-,N/A,,Clear,60,2012-10-06 08:52:00
2:52 AM,61.0,27.0,27,29.86,10.0,Calm,Calm,-,N/A,,Clear,0,2012-10-06 09:52:00
3:52 AM,60.1,26.1,27,29.86,10.0,Calm,Calm,-,N/A,,Clear,0,2012-10-06 10:52:00
4:52 AM,60.1,27.0,28,29.86,10.0,Calm,Calm,-,N/A,,Clear,0,2012-10-06 11:52:00
5:52 AM,59.0,27.0,29,29.87,10.0,ESE,4.6,-,N/A,,Clear,110,2012-10-06 12:52:00
6:52 AM,59.0,28.0,31,29.89,10.0,East,4.6,-,N/A,,Clear,100,2012-10-06 13:52:00
7:52 AM,63.0,27.0,26,29.89,10.0,Calm,Calm,-,N/A,,Clear,0,2012-10-06 14:52:00
8:52 AM,73.0,21.0,14,29.89,10.0,NNE,12.7,-,N/A,,Clear,20,2012-10-06 15:52:00
9:52 AM,73.9,21.0,14,29.89,10.0,NNE,16.1,-,N/A,,Clear,30,2012-10-06 16:52:00
10:52 AM,79.0,23.0,13,29.87,10.0,North,8.1,-,N/A,,Clear,10,2012-10-06 17:52:00
11:52 AM,82.0,25.0,12,29.86,10.0,Variable,3.5,-,N/A,,Clear,0,2012-10-06 18:52:00
12:52 PM,84.0,24.1,11,29.83,10.0,SE,5.8,-,N/A,,Clear,140,2012-10-06 19:52:00
1:52 PM,84.9,26.1,12,29.81,10.0,South,9.2,-,N/A,,Clear,190,2012-10-06 20:52:00
2:52 PM,84.0,25.0,12,29.79,10.0,Variable,5.8,-,N/A,,Clear,0,2012-10-06 21:52:00
3:52 PM,84.0,25.0,12,29.78,10.0,WSW,8.1,-,N/A,,Clear,240,2012-10-06 22:52:00
4:52 PM,84.0,25.0,12,29.77,10.0,SW,8.1,-,N/A,,Clear,230,2012-10-06 23:52:00
5:52 PM,81.0,27.0,14,29.77,10.0,WSW,8.1,-,N/A,,Clear,240,2012-10-07 00:52:00
6:52 PM,75.0,27.0,17,29.79,10.0,Calm,Calm,-,N/A,,Clear,0,2012-10-07 01:52:00
7:52 PM,71.1,26.1,19,29.80,10.0,NE,4.6,-,N/A,,Clear,50,2012-10-07 02:52:00
8:52 PM,66.9,25.0,21,29.79,10.0,ENE,4.6,-,N/A,,Clear,60,2012-10-07 03:52:00
9:52 PM,66.9,26.1,21,29.80,10.0,NE,9.2,-,N/A,,Clear,40,2012-10-07 04:52:00
10:52 PM,64.0,25.0,23,29.80,10.0,Calm,Calm,-,N/A,,Clear,0,2012-10-07 05:52:00
11:52 PM,63.0,27.0,26,29.80,10.0,ESE,8.1,-,N/A,,Clear,110,2012-10-07 06:52:00